Wind_Speed
7 8 8 8 7 7 6 7 7 7 7 7 8 8 8 7 6 6 6 6 6 6 6 6 5 5 5 5 6 7 7 7 7 8 8 9 9 9 8 9 10 10 10
7 8 8 7 7 6 6 7 7 7 7 7 7 7 7 6 6 6 6 6 5 5 6 6 5 5 5 6 6 6 7 7 7 7 8 8 8 8 8 9 9 10 9
7 8 7 7 6 6 6 7 7 7 7 7 7 7 6 6 5 5 5 5 5 5 6 5 5 5 5 5 5 6 7 7 7 7 7 7 7 8 8 8 9 10 9
7 7 7 7 7 7 7 7 7 7 7 7 7 6 6 6 5 5 4 4 5 5 5 5 5 5 5 5 5 5 6 7 6 6 6 6 7 7 7 8 8 8 8
7 7 7 7 7 7 7 7 7 7 6 7 7 6 5 5 5 5 4 4 4 5 5 5 5 5 5 5 5 5 6 6 6 6 6 6 7 7 7 7 7 8 9
6 7 7 8 7 7 7 7 7 6 6 7 7 6 6 5 5 5 4 5 5 5 5 5 5 5 5 6 6 6 7 7 7 6 6 6 7 7 7 7 8 8 9
7 7 7 8 8 7 7 7 7 7 7 7 7 6 6 5 5 5 5 5 5 6 6 6 6 6 6 6 6 6 6 7 6 6 6 7 7 7 7 7 8 8 9
8 8 8 8 8 7 8 7 7 7 7 7 7 7 7 6 6 6 6 6 6 7 7 7 6 6 6 6 6 7 6 6 6 6 6 6 7 7 7 8 8 8 9
9 9 9 8 9 8 8 8 8 8 8 8 8 8 7 7 7 7 6 6 7 7 7 6 6 6 6 6 6 6 6 5 5 6 6 6 7 7 8 9 8 8 9
10 9 9 9 9 9 9 9 8 8 8 8 8 7 7 7 7 7 7 7 7 7 7 7 6 6 6 6 6 7 6 6 5 6 6 6 6 7 7 8 8 9 9
10 10 10 10 10 10 10 9 9 8 8 9 8 8 7 7 7 7 8 8 8 8 8 7 7 8 8 8 7 7 7 7 6 6 6 6 7 7 7 8 8 9 9
11 11 11 11 11 11 10 10 10 9 10 10 9 8 8 8 9 9 9 9 9 8 8 8 8 8 8 7 7 7 7 7 7 7 7 7 7 8 8 8 8 9 10
11 11 11 12 12 11 11 10 11 11 11 11 11 10 10 10 10 10 10 10 9 9 8 8 8 8 8 8 8 8 7 8 8 8 8 8 8 9 8 9 9 10 10
12 12 12 12 12 12 12 11 11 11 11 12 12 12 11 11 11 11 11 11 10 10 9 9 8 8 8 8 9 9 9 9 9 10 10 10 10 9 10 10 11 11 11
14 13 13 13 13 13 12 12 12 12 12 12 12 12 12 12 12 12 12 12 11 10 10 10 10 10 9 9 10 10 10 10 10 11 11 11 11 11 11 12 12 12 12
16 15 15 14 13 13 13 13 13 13 13 12 12 12 12 13 13 12 13 13 12 12 12 12 11 12 11 11 11 11 11 11 11 11 12 12 12 12 13 13 13 14 14
17 17 16 15 15 14 14 14 14 14 14 13 13 13 12 13 13 13 14 14 14 13 13 13 13 13 13 13 13 12 12 12 13 13 13 13 14 14 14 15 15 15 15
18 18 17 17 17 17 16 16 16 16 15 15 14 14 14 14 14 14 14 14 15 15 15 14 14 15 14 14 14 14 14 14 14 14 14 14 15 15 15 15 15 15 16
19 20 19 19 18 18 18 18 17 17 16 16 15 15 15 15 15 15 15 15 15 16 16 16 16 16 16 15 15 16 16 16 16 16 16 16 16 16 16 16 16 17 17
21 20 20 21 21 20 20 19 18 18 17 17 16 16 16 16 16 16 16 16 16 16 17 17 17 17 17 17 17 17 17 17 17 18 18 18 18 17 17 17 17 18 18
23 23 22 22 22 22 21 21 20 20 20 20 19 18 18 18 18 17 17 17 18 18 17 17 18 18 18 18 18 18 19 19 19 19 20 20 19 19 19 19 20 20 20
25 25 24 24 24 24 23 23 23 23 23 23 22 20 19 19 19 19 19 19 19 19 19 19 19 20 21 21 20 20 20 21 21 21 21 22 22 22 22 22 22 22 23
26 26 25 25 24 24 25 25 25 25 25 24 24 23 22 21 21 20 20 20 20 21 20 20 21 21 22 22 22 22 23 23 23 23 23 23 24 24 24 24 25 25 25
26 26 27 26 25 25 26 25 26 26 26 25 25 25 24 24 23 23 22 22 22 22 22 22 22 23 23 23 24 24 24 25 25 25 25 25 26 26 26 26 27 27 27
27 27 28 27 27 27 26 26 26 26 27 26 27 27 26 26 25 24 24 24 24 24 24 24 24 25 25 25 26 26 27 27 27 27 27 27 27 27 28 28 29 29 29
27 27 27 28 28 27 27 27 27 28 28 28 28 27 28 27 27 26 26 26 26 26 26 27 27 26 27 27 28 28 28 29 29 29 29 30 30 29 30 30 31 31 31
Wind_Direction
313 316 320 323 321 317 315 314 313 315 316 311 310 310 308 304 296 290 288 291 290 290 291 283 281 282 277 273 274 276 276 277 275 271 268 265 264 264 263 262 257 258 259
312 313 315 320 321 318 317 315 316 316 314 313 311 310 307 306 302 296 292 293 291 288 290 290 287 284 277 274 276 277 283 283 282 277 271 264 261 256 259 263 256 256 256
309 313 314 315 315 316 315 317 318 317 310 308 310 307 302 302 300 298 298 300 299 295 289 290 291 288 283 279 278 279 281 285 285 281 277 268 257 255 259 263 258 256 255
307 311 311 312 315 320 317 313 314 316 312 306 304 301 300 301 300 297 298 305 307 303 296 287 285 288 287 288 287 282 283 285 289 284 277 273 267 267 262 262 262 258 254
306 309 311 311 313 316 318 316 311 308 307 304 300 294 293 296 297 296 295 297 304 307 302 295 293 290 287 292 294 284 285 289 293 289 285 282 279 275 269 266 264 264 260
305 304 307 309 308 310 310 313 314 307 301 301 298 292 290 291 297 294 294 296 300 306 307 297 291 289 285 289 294 290 288 290 291 290 289 289 290 286 281 274 266 268 266
299 300 306 310 308 304 306 309 312 307 296 296 295 293 292 288 291 293 286 291 296 303 309 302 291 284 284 288 293 295 296 293 292 289 285 285 286 285 282 277 275 273 268
296 298 300 302 302 301 306 306 308 310 302 293 291 288 288 287 286 290 286 287 289 296 308 304 292 282 280 285 291 293 295 298 301 296 295 292 292 287 283 281 276 272 271
294 296 297 299 299 300 302 301 300 301 301 297 289 283 282 283 285 288 287 284 287 292 302 304 295 292 285 286 290 294 294 295 300 299 296 295 293 295 289 289 284 280 278
294 292 293 295 297 298 297 295 295 294 293 293 289 284 280 277 279 280 285 284 287 292 295 300 299 296 296 290 289 292 295 294 294 296 295 291 290 292 290 292 289 286 283
289 288 286 291 294 293 291 290 290 293 292 291 287 281 278 272 271 274 279 283 285 290 292 291 296 295 294 292 286 287 291 293 292 294 297 290 287 287 287 289 291 293 290
284 285 284 287 289 289 285 282 284 286 288 288 284 279 275 275 274 273 277 279 280 284 287 288 288 291 291 289 287 286 288 287 288 291 295 292 288 287 285 289 292 292 289
279 282 283 283 284 285 283 281 280 282 284 284 281 275 273 274 274 274 274 277 278 279 282 284 285 287 285 284 285 283 285 285 286 288 293 289 288 289 287 289 293 294 291
276 276 278 279 281 282 281 280 281 281 281 283 281 275 275 273 273 273 273 274 277 277 277 278 279 284 284 282 285 285 282 284 285 286 288 288 288 291 293 292 292 293 290
276 275 275 276 277 277 277 277 276 277 279 281 280 274 274 275 274 271 272 273 273 274 273 275 276 278 282 280 284 285 283 283 283 284 285 287 287 291 292 292 290 290 289
272 274 274 274 270 271 273 272 272 274 276 276 275 275 276 275 274 272 271 271 271 271 270 271 273 275 277 278 280 282 282 283 284 284 284 286 288 286 290 289 290 291 290
270 273 272 270 270 270 272 273 273 273 275 273 271 271 275 276 273 274 273 271 273 272 269 270 272 272 273 275 277 281 280 280 281 283 285 286 287 286 286 287 287 288 289
265 268 269 269 269 269 269 270 271 271 272 273 270 268 271 273 273 274 274 273 273 272 270 270 270 271 272 274 276 279 280 280 280 281 283 286 287 287 289 288 287 287 287
262 264 266 267 267 269 269 268 269 268 270 270 268 269 270 271 273 275 275 273 273 273 271 269 269 269 270 273 276 276 277 279 279 280 282 285 287 289 290 290 290 289 289
261 263 265 266 267 268 269 269 268 268 269 270 269 270 274 273 273 273 273 272 272 273 272 271 269 270 270 271 273 275 276 277 278 279 281 283 285 287 288 288 289 290 292
262 263 264 265 266 267 268 267 266 268 268 269 271 271 272 273 274 273 272 272 271 272 271 271 270 272 272 271 271 274 276 276 276 277 279 282 284 285 285 285 287 288 289
263 263 263 263 265 267 267 266 264 264 265 268 270 270 269 270 271 272 272 271 270 269 269 269 271 273 273 274 273 273 274 275 276 277 278 279 282 283 283 284 285 286 286
264 264 264 264 264 265 266 265 263 263 264 266 267 268 268 268 268 270 270 270 269 268 268 269 270 272 275 276 276 275 276 277 278 278 279 279 281 282 283 283 284 285 285
263 263 263 262 262 264 264 263 262 263 264 266 266 267 267 267 267 268 269 269 269 268 267 268 270 272 274 276 277 278 278 278 279 279 279 280 280 280 282 283 284 284 285
263 263 262 263 264 263 263 262 262 263 263 263 264 265 266 266 266 266 267 268 269 270 270 270 272 273 274 275 276 277 280 280 279 279 279 280 280 280 281 282 283 283 285
265 265 263 263 263 263 262 262 262 263 263 262 263 265 265 265 265 266 267 268 268 269 272 271 271 274 275 275 276 277 278 279 280 280 280 280 279 279 280 281 282 283 283
Height
5859 5858 5856 5855 5854 5853 5852 5852 5851 5850 5849 5848 5847 5846 5845 5844 5844 5843 5842 5842 5841 5840 5840 5840 5839 5839 5839 5838 5838 5838 5838 5837 5836 5836 5836 5835 5835 5835 5835 5835 5835 5835 5835
5857 5856 5855 5854 5853 5852 5851 5850 5850 5849 5848 5847 5846 5845 5844 5843 5842 5842 5841 5840 5840 5839 5839 5838 5838 5837 5837 5837 5836 5836 5836 5835 5835 5834 5833 5833 5833 5832 5833 5832 5832 5832 5832
5855 5854 5853 5852 5851 5850 5850 5849 5848 5847 5846 5845 5844 5843 5842 5842 5841 5840 5840 5839 5838 5838 5837 5837 5836 5836 5836 5835 5835 5835 5834 5834 5833 5832 5832 5831 5831 5831 5831 5830 5830 5830 5830
5853 5853 5852 5851 5850 5849 5848 5847 5846 5846 5845 5844 5843 5842 5841 5840 5840 5839 5838 5838 5837 5836 5836 5836 5835 5835 5834 5834 5833 5833 5832 5832 5831 5830 5829 5829 5829 5829 5829 5828 5828 5828 5828
5851 5851 5850 5849 5849 5848 5847 5846 5845 5844 5843 5842 5841 5841 5840 5839 5838 5838 5837 5837 5836 5835 5835 5834 5834 5833 5833 5832 5832 5831 5831 5830 5829 5829 5828 5827 5827 5827 5827 5826 5826 5826 5826
5850 5849 5848 5848 5847 5846 5845 5844 5843 5842 5841 5841 5840 5839 5838 5838 5837 5836 5836 5836 5835 5834 5833 5833 5832 5832 5831 5831 5830 5830 5829 5828 5827 5827 5826 5826 5825 5825 5824 5824 5824 5823 5823
5848 5847 5847 5846 5845 5844 5843 5842 5842 5841 5840 5839 5838 5838 5837 5836 5836 5835 5835 5834 5834 5833 5832 5831 5831 5830 5830 5829 5829 5828 5827 5827 5826 5825 5824 5824 5823 5823 5822 5822 5821 5821 5821
5846 5845 5844 5844 5843 5842 5841 5841 5840 5839 5838 5837 5836 5836 5835 5835 5834 5834 5833 5833 5832 5831 5831 5830 5829 5828 5828 5828 5827 5826 5826 5825 5824 5823 5823 5822 5821 5821 5820 5820 5819 5818 5818
5843 5842 5842 5841 5841 5840 5839 5839 5838 5837 5836 5835 5834 5834 5833 5833 5832 5832 5831 5831 5830 5830 5829 5828 5827 5827 5826 5826 5825 5825 5824 5823 5822 5822 5821 5820 5820 5819 5818 5817 5817 5817 5816
5840 5840 5839 5839 5838 5837 5837 5836 5835 5835 5834 5833 5832 5832 5831 5831 5831 5830 5830 5829 5829 5828 5827 5826 5826 5825 5825 5824 5824 5823 5822 5821 5821 5820 5819 5819 5818 5817 5816 5815 5814 5814 5813
5837 5836 5836 5836 5835 5835 5834 5833 5832 5832 5831 5830 5830 5829 5829 5829 5828 5828 5828 5827 5827 5826 5825 5825 5824 5823 5823 5822 5821 5821 5820 5819 5819 5818 5817 5817 5816 5815 5814 5813 5812 5812 5811
5833 5833 5833 5833 5832 5832 5831 5830 5830 5829 5828 5827 5827 5827 5826 5826 5826 5826 5825 5825 5824 5824 5823 5823 5822 5821 5821 5820 5819 5819 5818 5817 5816 5816 5815 5814 5813 5813 5812 5811 5810 5809 5808
5830 5830 5829 5829 5829 5828 5828 5827 5826 5826 5825 5824 5824 5823 5823 5823 5823 5823 5822 5822 5822 5821 5821 5820 5820 5819 5818 5817 5817 5816 5815 5815 5814 5813 5813 5812 5811 5810 5809 5809 5808 5807 5806
5826 5826 5825 5825 5825 5824 5824 5824 5823 5822 5822 5821 5820 5820 5820 5820 5819 5819 5819 5819 5819 5818 5818 5818 5817 5816 5816 5815 5814 5813 5813 5812 5811 5811 5810 5809 5808 5807 5807 5806 5805 5804 5803
5822 5822 5821 5821 5821 5820 5820 5820 5819 5819 5818 5817 5817 5816 5816 5816 5815 5815 5815 5815 5815 5815 5815 5814 5814 5813 5813 5812 5811 5811 5810 5809 5809 5808 5807 5806 5805 5805 5804 5803 5802 5801 5800
5817 5817 5817 5817 5816 5816 5816 5816 5815 5815 5814 5814 5813 5812 5812 5812 5811 5811 5811 5811 5811 5811 5811 5810 5810 5810 5809 5809 5808 5807 5807 5806 5805 5805 5804 5803 5802 5801 5801 5800 5798 5798 5796
5812 5812 5812 5812 5812 5812 5811 5811 5810 5810 5810 5809 5809 5809 5808 5808 5808 5807 5807 5807 5807 5807 5807 5806 5806 5806 5805 5805 5804 5803 5803 5802 5802 5801 5800 5800 5799 5798 5797 5796 5795 5794 5792
5806 5806 5806 5807 5807 5807 5806 5806 5805 5805 5805 5805 5804 5804 5804 5804 5803 5803 5803 5803 5803 5802 5802 5802 5802 5801 5801 5800 5800 5799 5799 5798 5798 5797 5796 5795 5794 5793 5792 5791 5790 5789 5788
5800 5801 5801 5801 5801 5801 5801 5800 5800 5800 5800 5800 5799 5799 5799 5799 5799 5798 5798 5798 5798 5798 5797 5797 5797 5797 5796 5796 5796 5795 5794 5794 5793 5793 5792 5791 5790 5789 5788 5787 5786 5784 5783
5793 5794 5794 5794 5794 5794 5795 5795 5794 5794 5794 5794 5794 5794 5794 5793 5793 5793 5793 5793 5793 5793 5792 5792 5792 5791 5791 5791 5791 5790 5789 5789 5788 5788 5787 5786 5785 5784 5783 5782 5781 5779 5778
5786 5786 5786 5787 5787 5787 5788 5788 5788 5788 5788 5788 5788 5788 5788 5788 5788 5788 5787 5787 5787 5787 5787 5786 5786 5786 5786 5785 5785 5784 5784 5783 5783 5782 5781 5780 5780 5779 5777 5776 5775 5774 5772
5778 5778 5779 5779 5780 5780 5780 5781 5781 5781 5781 5781 5781 5782 5782 5782 5782 5781 5781 5781 5781 5781 5781 5780 5780 5780 5780 5779 5779 5778 5778 5777 5777 5776 5775 5774 5773 5772 5771 5770 5769 5767 5766
5770 5770 5771 5771 5772 5772 5772 5773 5773 5773 5774 5774 5774 5774 5775 5775 5775 5775 5775 5775 5775 5775 5775 5774 5774 5774 5773 5773 5772 5772 5771 5770 5770 5769 5768 5767 5767 5766 5764 5763 5762 5760 5759
5761 5761 5762 5763 5764 5764 5764 5765 5765 5766 5766 5766 5766 5767 5767 5768 5768 5768 5768 5768 5768 5768 5768 5768 5767 5767 5766 5766 5765 5764 5764 5763 5762 5761 5761 5760 5759 5758 5757 5755 5754 5752 5751
5752 5753 5753 5754 5755 5755 5756 5756 5757 5757 5758 5758 5758 5758 5759 5759 5760 5760 5760 5761 5761 5760 5760 5760 5760 5759 5759 5758 5757 5757 5756 5755 5754 5753 5752 5751 5750 5749 5748 5747 5745 5744 5742
5743 5744 5744 5745 5746 5746 5747 5748 5748 5748 5749 5749 5750 5750 5750 5751 5751 5752 5752 5752 5752 5752 5752 5752 5752 5751 5751 5750 5749 5748 5747 5746 5745 5744 5743 5742 5741 5740 5739 5737 5736 5734 5732